Wetbulb
52.16 52.42 52.87 53.00 53.54 53.33 52.85 52.79 52.70 52.10 51.60 50.80 50.71 50.31 49.91 49.39 49.02 48.09 47.81 48.51 48.22 48.11 48.79 49.65 50.06 50.27 50.24 51.18 51.04 51.96 53.64 54.48 54.35 57.31 59.89 61.00 61.10 61.51 64.69 66.08 67.46 66.10 65.23
51.80 52.13 52.37 52.69 52.39 52.08 52.04 51.74 51.89 50.17 50.10 49.93 49.73 49.57 49.95 50.02 48.74 48.36 48.02 48.59 48.24 48.09 47.66 47.35 47.53 49.13 47.20 47.33 47.41 47.58 49.02 52.56 53.98 53.08 57.13 58.55 59.48 61.33 61.67 62.19 65.56 66.85 65.87
51.42 51.12 51.44 51.50 51.30 50.83 50.76 50.58 50.99 49.33 49.05 49.34 49.48 49.19 49.65 49.28 48.36 48.18 48.48 48.89 47.81 49.15 49.26 48.83 48.03 48.23 46.98 45.85 46.15 46.62 48.56 50.37 51.22 51.89 51.93 56.50 58.80 61.31 60.87 61.51 62.05 63.35 65.59
50.70 50.19 50.10 50.46 51.01 49.95 49.97 49.74 49.00 49.41 49.26 48.72 48.64 48.88 49.10 49.32 49.33 49.60 50.00 49.00 47.50 48.20 49.88 49.80 48.37 48.11 47.13 46.33 46.53 46.77 46.81 46.50 48.62 49.53 49.88 51.48 54.56 58.87 60.87 59.71 59.25 61.79 61.92
49.30 49.18 49.47 50.59 50.00 49.46 49.20 48.76 49.63 49.30 49.43 49.70 49.55 50.19 49.99 49.17 49.85 47.45 47.44 46.84 46.26 46.06 47.07 47.56 47.91 49.39 50.95 49.80 47.62 46.19 45.88 44.75 45.27 45.58 45.73 47.06 49.44 53.39 56.26 59.34 58.68 57.75 59.66
46.80 47.18 49.70 49.51 49.24 48.87 48.89 48.98 48.08 47.73 47.97 48.55 48.89 49.65 47.72 48.76 47.39 47.35 48.15 46.46 46.09 46.14 46.00 47.62 48.83 50.25 49.41 49.43 49.41 49.50 48.38 44.82 43.44 43.40 43.58 43.67 46.34 49.69 53.19 57.24 57.86 57.22 56.21
45.75 47.15 47.75 47.05 46.99 47.16 47.56 46.97 46.07 46.07 47.49 49.03 48.54 47.29 46.77 47.33 46.05 45.51 46.92 47.73 48.23 47.79 47.38 46.85 47.18 48.40 48.76 48.31 47.98 48.09 47.79 47.93 48.10 46.02 43.96 44.82 45.84 49.39 51.77 53.69 56.99 56.89 55.73
42.98 43.13 44.09 43.97 44.29 45.30 45.36 45.27 45.91 48.28 48.23 47.89 48.07 48.68 47.93 48.39 46.35 44.96 45.86 48.27 47.90 48.29 47.98 47.62 47.46 47.49 47.53 46.98 46.29 45.94 45.59 46.20 46.69 48.26 48.60 47.83 48.19 49.84 51.72 55.20 55.73 58.20 58.60
40.47 40.87 42.03 42.46 42.87 43.87 44.09 46.00 47.29 47.78 47.87 48.00 48.84 49.16 48.76 49.67 46.53 44.71 44.72 46.61 46.39 46.71 48.02 49.51 50.24 49.63 46.96 43.66 46.20 45.67 45.17 46.21 48.35 47.28 46.64 46.02 45.86 46.30 49.47 52.58 54.28 56.21 54.64
39.43 40.06 40.70 41.20 41.72 42.93 44.82 45.47 47.17 47.04 47.67 48.29 48.61 47.77 48.34 48.49 46.18 43.32 43.17 43.98 42.99 43.89 45.08 45.98 46.96 47.96 45.70 42.83 45.55 46.00 45.02 46.14 47.03 47.57 48.67 48.22 46.00 48.48 46.95 50.47 54.07 54.61 55.14
38.90 38.86 39.88 41.60 42.04 43.95 44.93 45.76 45.62 46.90 47.65 47.83 46.14 45.65 45.69 46.58 44.78 41.99 41.50 41.37 41.41 41.03 42.01 43.64 45.24 44.09 43.05 41.87 42.64 47.10 46.44 47.40 47.26 47.78 48.21 48.97 49.88 50.29 50.90 54.56 55.69 56.25 53.95
36.74 37.04 38.66 39.24 40.53 42.70 43.14 44.79 46.05 45.94 46.07 43.90 43.22 43.49 45.20 43.50 43.09 41.55 39.76 39.25 40.36 40.55 42.55 45.34 46.39 43.27 42.21 42.73 43.10 43.61 41.67 43.96 47.01 47.16 47.01 47.77 48.60 49.63 52.57 55.77 56.75 57.83 58.37
37.25 36.32 36.82 36.59 39.32 40.94 42.51 42.08 41.98 42.99 41.76 41.13 41.40 41.79 40.16 41.12 40.68 40.16 38.80 38.94 40.23 41.89 46.10 47.78 44.60 42.91 41.65 42.23 41.93 41.40 41.03 44.97 45.38 45.04 45.31 47.34 48.65 50.93 55.42 56.37 57.84 58.35 58.22
35.74 36.48 36.14 35.98 37.38 40.23 40.02 40.83 37.06 37.97 37.98 38.95 40.75 36.48 36.98 37.77 37.46 37.87 38.26 39.28 41.45 46.00 48.92 50.77 49.56 45.69 42.86 43.10 45.21 46.25 46.99 47.30 46.74 46.42 47.81 48.95 51.97 53.70 54.86 54.14 54.53 56.13 56.29
36.25 36.14 35.68 36.03 36.49 37.08 38.63 39.17 37.20 37.54 37.49 36.17 37.36 35.37 35.00 34.87 36.19 37.09 37.04 38.29 41.53 43.91 48.28 51.29 52.17 52.15 51.13 49.67 49.16 49.44 50.13 48.63 48.11 49.04 48.30 50.46 51.80 52.69 53.69 54.07 54.37 55.29 55.75
35.72 35.78 35.60 35.37 35.84 35.85 34.92 36.59 37.97 37.17 37.39 36.33 37.27 35.61 35.45 36.41 36.77 36.67 36.44 37.54 38.83 39.36 45.96 47.42 47.96 48.59 50.28 52.37 51.48 51.90 52.74 50.19 49.61 49.38 49.73 50.11 51.44 51.88 53.05 54.50 55.77 55.27 55.67
35.59 35.93 35.83 35.82 35.33 34.73 35.08 35.09 34.34 36.92 37.65 36.54 36.07 35.65 35.59 35.81 35.94 36.01 35.99 36.80 37.74 40.26 41.47 43.58 45.47 45.38 47.19 49.36 52.25 52.39 52.01 53.58 53.05 50.70 50.63 51.74 51.80 52.24 51.71 55.25 54.99 55.59 56.03
36.52 37.80 35.76 36.45 34.81 34.12 34.60 34.92 35.43 35.18 33.96 34.46 35.05 35.07 35.40 35.53 35.24 35.21 35.20 36.84 36.83 38.00 38.97 40.07 41.24 43.32 44.53 45.60 45.92 49.02 51.45 53.24 53.99 54.26 53.68 53.55 53.49 55.29 54.75 55.59 56.57 55.95 55.23
36.78 36.24 36.45 36.30 34.85 35.24 34.20 33.59 33.64 34.94 34.98 34.21 33.81 33.89 34.77 35.23 34.78 34.59 34.55 34.36 33.86 34.97 36.16 37.79 39.42 40.18 43.31 41.87 42.98 42.21 43.38 44.16 51.12 53.31 53.45 53.99 54.14 55.31 56.11 56.47 56.03 49.85 51.26
36.90 36.67 36.16 35.57 35.10 34.93 34.96 33.76 33.75 33.04 32.80 33.68 32.52 31.85 33.23 33.59 32.61 32.20 33.21 33.09 33.09 33.97 34.61 36.28 37.39 38.61 40.65 39.30 39.30 38.94 38.48 39.20 42.99 46.96 52.68 53.86 53.46 54.39 55.53 56.65 55.89 54.59 55.36
35.07 35.24 34.87 34.27 34.03 33.50 33.83 32.79 32.77 32.85 32.20 31.90 30.70 33.20 31.76 32.62 31.66 32.09 31.94 32.47 32.94 33.19 34.03 34.88 35.91 36.44 37.72 37.48 35.56 35.91 35.58 35.38 37.11 40.61 43.85 49.42 54.35 53.02 53.09 54.73 57.28 57.22 56.77
34.67 33.92 33.42 31.89 32.69 31.97 32.07 32.29 31.07 31.40 31.84 31.24 31.70 32.45 31.47 32.36 32.30 31.50 32.29 32.34 33.33 33.98 34.81 34.87 34.71 35.46 35.94 35.58 33.77 33.74 33.28 33.10 33.87 35.61 37.51 43.11 52.02 53.89 54.79 53.21 53.90 56.79 55.87
33.64 32.49 31.36 31.13 31.00 30.99 30.16 30.26 29.14 29.24 29.98 30.57 30.51 30.89 30.71 29.46 30.01 30.29 30.79 31.75 33.26 33.48 34.40 34.46 34.64 34.25 35.04 35.51 33.74 32.95 31.15 30.99 32.15 34.43 34.49 38.91 50.18 54.34 54.03 54.95 54.30 56.25 55.75
32.81 31.44 29.58 29.23 29.51 27.99 27.83 27.84 27.48 27.78 28.93 28.65 28.94 29.10 29.77 29.13 28.76 29.11 29.48 30.33 31.38 32.58 33.51 34.05 33.97 33.76 33.84 33.76 33.13 32.82 31.77 31.34 32.66 33.11 35.19 41.19 49.73 52.29 56.17 56.23 56.57 56.81 55.89
31.71 30.61 29.17 28.64 27.45 28.74 28.73 27.89 26.49 26.03 27.28 27.36 27.37 27.84 28.65 29.19 27.99 28.90 28.59 29.38 29.81 30.23 31.36 32.21 33.18 33.32 33.14 32.83 31.37 31.55 30.70 30.44 31.49 31.23 34.94 44.03 46.80 49.49 49.74 57.48 57.09 57.22 56.29
31.31 30.46 28.85 28.24 28.22 29.23 29.20 27.49 26.71 26.85 26.29 26.58 26.85 26.91 27.50 27.82 27.37 27.67 27.76 28.01 28.13 28.74 29.31 29.86 30.77 31.00 31.63 31.89 30.50 30.30 30.03 30.20 30.46 30.45 35.79 41.54 43.96 45.25 45.77 55.18 57.29 56.62 55.63
MSLP
1012.05 1012.18 1012.40 1012.62 1012.76 1012.90 1012.99 1012.96 1013.01 1012.99 1013.05 1013.16 1013.20 1013.24 1013.23 1013.07 1012.88 1012.85 1012.76 1012.53 1012.40 1012.28 1012.01 1011.68 1011.39 1011.14 1011.07 1010.51 1009.94 1010.05 1009.35 1008.54 1006.97 1006.22 1005.92 1005.16 1004.53 1004.11 1003.28 1002.73 1002.58 1003.08 1003.23
1012.12 1012.28 1012.49 1012.58 1012.67 1012.80 1012.93 1012.99 1012.89 1012.92 1012.84 1012.83 1012.78 1012.80 1012.77 1012.57 1012.43 1012.43 1012.30 1012.05 1012.02 1011.78 1011.32 1011.05 1010.75 1010.34 1010.01 1009.92 1009.92 1009.69 1009.00 1008.74 1007.52 1006.40 1006.18 1005.17 1004.45 1003.86 1003.42 1003.17 1002.58 1002.35 1002.52
1012.58 1012.74 1012.84 1012.87 1012.85 1012.94 1012.94 1012.84 1012.91 1012.89 1012.65 1012.42 1012.42 1012.51 1012.37 1012.10 1011.92 1011.78 1011.45 1011.16 1011.09 1010.81 1010.43 1010.09 1009.77 1009.49 1009.03 1008.87 1008.84 1008.65 1008.57 1008.13 1007.37 1006.72 1006.00 1005.40 1004.47 1003.52 1002.59 1002.95 1002.44 1001.75 1001.93
1013.17 1013.17 1013.06 1012.97 1012.82 1012.82 1012.81 1012.78 1012.75 1012.64 1012.61 1012.55 1012.45 1012.30 1012.04 1011.74 1011.54 1011.24 1010.88 1010.69 1010.52 1010.14 1009.72 1009.39 1009.12 1008.78 1008.46 1008.29 1008.22 1008.03 1007.75 1007.34 1006.86 1006.41 1005.79 1005.43 1004.79 1003.60 1002.80 1002.94 1002.45 1001.67 1001.71
1013.92 1013.69 1013.35 1012.94 1012.70 1012.68 1012.62 1012.58 1012.57 1012.82 1012.81 1012.62 1012.39 1012.03 1011.64 1011.49 1011.19 1010.90 1010.66 1010.35 1009.99 1009.49 1008.98 1008.51 1008.02 1007.67 1007.37 1007.18 1007.11 1006.86 1006.70 1006.51 1006.30 1006.00 1005.50 1005.12 1004.49 1003.84 1002.65 1002.44 1002.23 1001.47 1001.11
1014.54 1014.24 1013.69 1013.18 1013.02 1013.00 1012.97 1013.02 1013.00 1012.93 1012.65 1012.42 1012.06 1011.67 1011.49 1011.06 1010.61 1010.22 1009.99 1009.66 1009.08 1008.47 1007.74 1007.08 1006.70 1006.27 1006.08 1006.08 1005.97 1005.82 1005.76 1005.55 1005.48 1005.34 1004.98 1004.53 1004.13 1003.79 1003.07 1002.46 1001.83 1001.43 1001.54
1014.92 1014.52 1014.26 1013.97 1013.72 1013.64 1013.40 1013.23 1013.11 1012.78 1012.44 1012.08 1011.66 1011.43 1011.03 1010.54 1009.97 1009.50 1009.02 1008.64 1007.87 1007.27 1006.66 1005.95 1005.44 1004.99 1004.78 1004.78 1004.84 1004.81 1004.66 1004.33 1004.19 1004.18 1003.99 1003.79 1003.48 1003.16 1003.04 1002.67 1001.77 1001.09 1000.85
1015.52 1015.24 1014.90 1014.56 1014.18 1013.90 1013.62 1013.32 1012.98 1012.54 1012.22 1011.81 1011.39 1010.89 1010.49 1009.93 1009.29 1008.79 1008.25 1007.83 1006.98 1006.11 1005.33 1004.70 1004.14 1003.64 1003.33 1003.58 1003.66 1003.76 1003.61 1003.41 1003.10 1002.91 1002.66 1002.60 1002.55 1002.38 1002.25 1002.00 1001.85 1001.04 1000.06
1016.15 1015.88 1015.50 1015.11 1014.60 1014.16 1013.66 1013.25 1012.76 1012.43 1012.03 1011.54 1011.08 1010.58 1010.10 1009.34 1008.65 1008.17 1008.09 1007.35 1006.37 1005.34 1004.30 1003.27 1002.38 1001.90 1001.54 1002.05 1002.52 1002.33 1002.21 1001.89 1001.73 1001.64 1001.59 1001.55 1001.43 1001.26 1001.33 1001.44 1000.99 1000.92 1000.07
1016.60 1016.21 1015.82 1015.33 1014.83 1014.23 1013.63 1013.08 1012.57 1012.20 1011.78 1011.33 1010.90 1010.49 1009.80 1009.08 1008.49 1008.24 1008.05 1007.07 1005.85 1004.92 1003.82 1002.63 1001.60 1000.84 1000.30 1000.61 1001.09 1001.03 1000.83 1000.30 1000.39 1000.46 1000.44 1000.41 1000.32 1000.24 999.95 1000.66 1000.67 1000.02 999.47
1016.88 1016.49 1015.93 1015.34 1014.75 1014.01 1013.43 1012.92 1012.48 1011.95 1011.51 1011.21 1010.86 1010.22 1009.66 1009.27 1008.72 1008.07 1007.25 1006.82 1006.23 1005.01 1003.41 1001.72 1000.53 999.78 999.42 999.29 999.27 999.43 999.27 999.09 999.26 999.51 999.59 999.54 999.50 999.29 998.98 999.10 999.24 999.12 998.96
1016.97 1016.58 1015.97 1015.44 1014.85 1014.16 1013.58 1012.91 1012.20 1011.88 1011.56 1011.23 1010.71 1010.21 1009.75 1009.55 1008.87 1007.90 1007.06 1006.40 1005.53 1004.54 1002.57 1000.69 999.39 998.58 998.14 997.84 997.75 997.56 997.89 998.10 998.37 998.43 998.56 998.49 998.38 998.25 998.07 997.78 997.62 997.97 997.98
1016.94 1016.64 1016.17 1015.63 1014.93 1014.30 1013.69 1013.40 1012.89 1012.54 1012.33 1011.74 1011.17 1010.72 1010.32 1009.69 1008.75 1008.00 1007.15 1006.03 1004.53 1003.41 1001.46 999.73 998.39 997.42 997.06 996.73 996.56 996.75 997.13 997.31 997.22 997.33 997.12 997.10 997.05 997.08 996.74 996.51 996.62 997.05 997.32
1016.94 1016.71 1016.31 1015.76 1015.14 1014.49 1014.22 1013.83 1013.90 1013.57 1013.12 1012.44 1011.75 1011.67 1011.12 1010.26 1009.35 1008.59 1007.81 1006.41 1004.41 1002.52 1000.82 999.04 997.67 996.84 996.40 996.21 996.10 996.12 996.21 996.17 996.16 996.06 995.95 996.07 996.18 995.89 995.49 995.56 996.07 996.46 996.97
1016.91 1016.72 1016.37 1015.85 1015.47 1015.07 1014.64 1014.46 1014.40 1014.15 1013.86 1013.26 1012.76 1012.65 1012.10 1011.03 1010.33 1009.80 1008.81 1006.88 1005.04 1003.31 1001.07 999.29 998.05 996.83 996.25 995.81 995.76 995.63 995.42 995.46 995.56 995.55 995.48 995.53 995.36 995.22 995.30 995.25 995.46 995.79 996.38
1016.80 1016.54 1016.36 1016.09 1015.87 1015.52 1015.20 1014.66 1014.36 1014.23 1013.77 1013.44 1013.15 1012.96 1012.54 1012.01 1010.88 1009.51 1007.74 1006.25 1004.88 1003.41 1001.89 1001.12 999.76 998.67 997.41 996.16 995.65 995.17 994.72 994.79 995.00 995.21 995.22 995.27 995.13 995.20 995.24 995.28 995.37 995.55 996.12
1016.64 1016.31 1016.20 1015.94 1015.85 1015.56 1015.19 1014.80 1014.36 1014.01 1013.71 1013.54 1013.17 1012.77 1012.46 1011.93 1010.87 1009.65 1008.32 1006.96 1005.69 1003.81 1003.61 1002.97 1001.76 1000.63 999.47 998.22 996.83 996.00 994.98 994.08 994.02 994.61 994.70 994.81 994.88 994.87 995.06 994.82 994.64 995.18 996.02
1016.49 1016.17 1015.85 1015.67 1015.66 1015.51 1015.25 1014.87 1014.47 1014.00 1013.72 1013.55 1013.33 1012.93 1012.29 1011.86 1011.21 1010.24 1009.20 1007.84 1005.94 1005.54 1005.53 1004.83 1003.82 1002.57 1001.45 1000.29 999.13 997.82 996.46 995.18 994.36 994.10 994.45 994.61 994.45 994.06 994.20 994.17 994.35 995.02 995.78
1016.64 1016.37 1015.97 1015.72 1015.72 1015.49 1015.33 1015.12 1014.78 1014.52 1014.41 1014.25 1013.84 1013.07 1012.61 1012.20 1011.62 1010.95 1010.05 1009.32 1008.88 1008.13 1007.22 1006.24 1005.48 1004.41 1002.96 1002.20 1001.15 1000.05 999.11 997.91 996.25 995.37 994.83 994.62 994.32 993.88 993.92 994.06 994.38 994.79 995.59
1016.95 1016.73 1016.56 1016.46 1016.32 1016.05 1015.71 1015.43 1015.10 1014.86 1014.68 1014.53 1014.29 1013.86 1013.09 1012.54 1011.69 1011.20 1010.97 1010.64 1010.14 1009.61 1008.80 1007.70 1006.63 1005.59 1004.40 1003.73 1002.84 1002.20 1000.90 999.55 998.42 997.13 995.89 995.10 994.60 994.06 993.44 993.56 994.46 995.13 995.73
1017.67 1017.50 1017.49 1017.37 1017.27 1017.01 1016.64 1016.47 1016.08 1015.62 1015.31 1015.06 1014.81 1014.48 1014.11 1013.59 1013.41 1012.83 1012.29 1011.75 1011.22 1010.66 1010.01 1009.05 1007.92 1006.90 1005.90 1005.15 1004.19 1003.30 1002.46 1001.48 1000.52 999.34 998.22 996.75 995.58 995.08 994.74 994.53 994.43 995.04 995.99
1018.50 1018.50 1018.48 1018.47 1018.22 1018.05 1017.81 1017.49 1017.25 1016.75 1016.28 1016.00 1015.54 1015.06 1014.72 1014.44 1014.14 1013.92 1013.38 1012.71 1012.18 1011.71 1010.97 1010.16 1009.28 1008.49 1007.71 1006.93 1005.95 1004.58 1003.69 1002.82 1001.64 1000.60 999.98 998.59 996.69 996.12 995.56 994.87 995.14 995.43 996.24
1019.33 1019.39 1019.53 1019.46 1019.34 1019.18 1018.89 1018.60 1018.38 1017.98 1017.43 1017.02 1016.62 1016.09 1015.63 1015.53 1015.13 1014.79 1014.30 1013.72 1012.88 1012.19 1011.62 1010.93 1010.09 1009.21 1008.69 1008.38 1007.81 1006.62 1005.37 1004.16 1003.71 1002.53 1001.01 999.30 997.93 997.04 996.68 996.39 996.02 996.25 997.00
1020.06 1020.37 1020.61 1020.50 1020.36 1020.17 1019.95 1019.71 1019.52 1019.12 1018.54 1018.14 1017.71 1017.19 1016.66 1016.40 1016.02 1015.55 1015.04 1014.39 1013.67 1012.87 1012.16 1011.58 1011.02 1010.32 1009.36 1009.00 1008.89 1008.11 1007.09 1006.06 1004.20 1003.13 1001.71 1000.19 998.58 997.50 996.54 997.03 996.82 996.97 997.47
1020.77 1021.03 1021.19 1021.15 1021.10 1020.86 1020.63 1020.48 1020.39 1020.02 1019.56 1019.13 1018.66 1018.17 1017.58 1017.07 1016.75 1016.28 1015.82 1015.11 1014.34 1013.55 1012.74 1012.15 1011.63 1010.98 1010.24 1009.36 1009.07 1008.54 1007.59 1005.95 1005.04 1002.91 1002.19 1000.77 999.41 998.01 997.49 996.36 997.04 997.19 997.98
1021.08 1021.24 1021.43 1021.50 1021.56 1021.41 1021.21 1021.16 1021.03 1020.71 1020.28 1019.88 1019.44 1018.90 1018.33 1017.77 1017.32 1016.93 1016.44 1015.78 1014.96 1014.21 1013.46 1012.72 1012.07 1011.57 1010.89 1010.01 1009.30 1008.71 1008.12 1007.23 1005.96 1004.82 1003.06 1001.39 1000.61 999.90 999.17 997.73 997.57 997.95 998.64
Wind_Speed
6 4 5 4 5 4 4 4 4 4 5 5 5 4 4 5 5 5 5 6 6 6 7 8 8 9 8 8 5 7 9 9 13 9 10 8 9 9 9 8 8 6 5
5 4 4 5 5 5 4 4 3 3 3 3 4 5 5 5 6 6 6 7 9 10 10 9 11 9 9 9 8 11 10 12 11 14 11 10 13 13 10 6 5 6 7
7 5 5 4 4 2 2 4 1 3 4 5 5 6 6 6 6 7 7 8 7 10 11 12 12 12 12 7 9 10 10 9 11 11 9 10 9 9 7 6 5 5 5
7 7 5 3 1 2 2 1 3 3 4 6 6 6 7 9 9 8 10 6 7 10 11 10 11 12 12 11 11 12 10 10 10 8 8 8 9 10 5 7 6 3 4
7 7 7 5 3 2 1 4 4 5 5 6 6 7 7 6 7 6 9 11 11 12 12 13 13 16 22 18 11 12 11 9 10 11 10 9 9 10 8 6 7 5 5
7 7 8 5 6 5 6 6 6 5 6 6 8 9 6 7 12 15 15 11 12 12 13 13 14 18 18 22 23 25 20 14 13 10 10 11 13 11 11 11 5 3 3
6 7 10 10 9 7 6 6 6 7 6 9 9 7 9 11 13 16 19 12 14 15 16 15 14 12 16 14 16 19 22 22 21 15 15 13 12 11 11 13 11 5 6
8 9 10 10 10 9 7 6 7 7 8 8 9 11 10 10 15 16 17 12 13 15 16 16 16 17 15 14 13 14 14 14 15 12 14 14 14 16 13 12 13 8 2
9 9 9 9 9 7 7 8 9 7 8 9 9 11 11 12 16 14 13 14 14 17 17 18 17 17 19 17 14 16 15 15 15 20 18 19 17 20 13 4 8 8 3
9 10 9 7 7 9 9 10 6 7 6 7 10 8 11 11 11 15 13 10 13 12 16 18 22 20 22 19 16 15 15 16 12 12 10 13 17 16 19 11 10 8 4
8 8 8 8 8 8 8 8 8 6 7 6 8 7 7 9 15 16 21 13 11 13 13 13 11 21 18 20 23 16 16 16 15 11 9 8 9 10 10 9 10 10 5
6 8 8 9 8 8 9 9 7 5 8 6 7 7 6 11 14 17 26 26 24 13 15 13 14 21 22 23 19 21 20 18 10 8 8 8 10 10 8 9 11 12 10
6 8 8 7 8 9 8 9 8 9 8 8 7 8 10 10 11 21 27 30 29 18 13 19 27 26 23 19 19 16 12 8 8 9 9 10 9 8 10 11 12 15 8
4 6 7 7 9 8 5 6 7 7 8 9 7 9 11 11 12 14 15 16 21 17 20 12 16 12 11 8 6 5 5 6 7 8 8 7 6 6 4 5 6 6 4
5 4 6 6 7 7 7 5 5 6 7 8 6 8 10 12 13 20 18 12 12 17 14 14 12 13 11 3 2 4 4 4 6 5 4 3 5 5 5 2 3 3 4
4 3 2 3 4 5 4 5 5 9 11 14 8 9 9 14 22 25 29 26 25 23 13 14 14 16 16 13 5 4 3 5 5 5 5 5 5 4 5 4 6 6 7
3 4 3 1 1 3 3 4 5 6 5 11 13 15 16 18 23 25 27 22 21 22 15 14 15 16 15 16 12 11 8 5 9 7 6 6 5 5 4 5 6 7 8
3 7 4 3 2 2 3 3 4 5 9 10 12 13 17 21 22 23 24 13 15 18 14 14 15 15 15 15 15 14 12 12 8 2 3 1 3 6 6 5 7 8 9
4 7 6 6 0 4 3 3 4 3 5 6 8 11 15 19 20 20 23 13 12 12 13 13 13 14 13 14 13 15 16 14 11 6 5 4 3 3 5 5 8 12 12
6 12 10 8 7 9 6 7 8 5 4 5 8 10 11 12 14 15 14 13 12 11 12 13 13 13 13 15 15 14 14 15 14 13 9 7 7 5 4 8 10 10 9
6 8 12 9 8 9 8 8 9 8 7 8 3 7 11 11 11 12 13 12 12 12 12 12 13 13 14 14 16 15 14 13 13 13 12 11 8 7 5 4 10 9 10
7 8 8 9 8 9 9 8 9 10 9 10 9 9 10 11 10 11 12 12 11 11 10 11 11 11 12 14 16 16 15 15 15 14 11 11 10 6 5 4 4 7 10
7 9 9 8 8 11 9 9 10 10 10 10 11 11 9 10 10 11 11 11 12 12 10 11 11 12 12 11 13 14 17 17 14 13 13 11 8 3 4 2 3 3 11
8 8 8 8 8 7 8 9 9 12 11 10 10 10 10 10 10 12 12 11 11 12 12 11 11 16 14 13 12 11 13 14 15 14 17 12 13 13 5 9 8 7 12
6 5 5 7 6 8 8 8 8 9 9 10 10 10 10 10 11 11 12 11 11 11 13 13 11 16 18 20 21 21 21 24 19 25 12 14 17 20 16 7 10 11 13
5 5 4 4 5 8 6 8 8 8 8 8 8 9 10 10 10 10 11 12 12 13 14 12 14 20 20 17 22 23 23 22 21 25 16 16 15 15 14 10 16 14 16
Wind_Direction
83 88 89 83 77 67 54 27 9 16 26 28 13 349 320 299 293 281 262 264 269 282 290 287 291 301 291 288 305 299 289 284 285 287 285 289 300 304 277 215 196 188 189
39 49 69 75 63 51 34 357 351 29 357 332 316 300 289 277 272 260 255 268 267 272 263 254 258 263 275 282 279 278 275 283 290 289 289 281 274 278 282 269 224 195 179
22 23 40 52 64 53 313 305 328 304 311 318 313 299 290 289 289 270 257 267 258 275 279 270 270 274 278 272 276 278 276 278 279 281 294 306 294 283 276 287 244 204 196
9 358 359 335 254 253 274 340 286 283 299 301 297 290 288 295 294 292 301 294 284 284 283 272 266 262 255 259 261 263 266 271 276 289 288 282 297 290 265 258 244 205 185
351 336 316 301 315 320 289 281 319 6 338 325 316 300 303 304 303 308 306 295 286 282 276 270 264 260 257 254 257 260 262 268 271 275 277 285 289 294 276 250 266 244 214
348 331 318 8 2 353 9 30 28 346 338 327 313 316 304 297 287 289 294 287 281 275 274 271 262 260 263 266 263 261 260 262 261 262 267 260 265 271 280 282 222 191 239
328 329 5 3 10 359 0 21 355 338 322 316 313 293 295 294 288 285 281 281 286 280 277 271 266 260 261 259 256 250 253 255 251 258 258 255 262 256 271 283 278 207 197
13 0 358 353 351 345 345 349 335 325 316 312 303 299 293 293 284 284 287 303 295 286 274 264 256 257 248 245 245 249 250 249 247 245 242 242 246 254 246 256 265 275 216
359 346 344 339 327 331 330 329 315 317 313 312 313 313 307 299 290 300 325 321 310 303 299 289 273 263 255 235 237 242 247 249 242 241 245 247 242 243 236 272 260 252 190
347 339 331 317 325 319 321 311 313 309 297 311 308 304 295 306 335 327 334 327 318 311 302 292 286 267 260 234 232 239 245 248 246 249 244 246 245 244 246 224 236 253 176
345 328 325 324 321 318 321 321 310 307 308 305 309 307 303 346 325 329 337 332 317 306 294 287 274 263 258 244 237 235 233 241 246 238 239 243 255 244 249 226 212 227 225
347 333 332 341 333 336 326 323 315 314 312 308 314 318 343 334 329 338 336 329 320 304 294 285 281 268 258 256 243 237 231 232 240 236 230 233 233 234 237 227 222 220 218
358 346 341 334 338 321 351 3 358 355 360 337 329 351 342 335 336 346 340 331 320 317 297 296 291 285 280 273 254 241 228 229 226 221 224 231 221 232 254 205 194 216 198
341 343 352 353 343 353 17 13 1 351 353 338 11 2 344 341 345 349 336 323 321 324 330 320 324 307 283 280 288 231 228 227 219 219 217 214 218 242 247 180 177 175 159
333 345 358 3 5 358 6 355 15 5 10 357 30 15 351 346 340 327 323 320 327 336 335 355 347 355 348 319 267 243 224 203 207 212 204 198 219 258 247 216 189 154 164
316 327 346 0 355 5 352 342 359 17 11 14 13 22 355 344 335 342 348 344 349 345 9 3 356 356 353 354 345 311 236 200 192 198 217 214 225 215 237 224 200 175 177
250 301 236 223 328 327 353 5 351 4 21 25 14 6 360 354 349 353 353 343 358 8 18 4 1 360 357 356 353 0 348 301 197 192 208 217 216 228 220 232 168 156 143
35 308 317 228 213 277 298 330 332 9 11 10 15 2 3 6 0 4 2 354 15 15 11 0 359 356 2 358 356 353 350 354 19 43 109 148 241 227 208 195 160 149 146
16 1 359 6 188 285 257 310 324 10 20 15 9 12 9 10 6 13 15 22 13 7 0 1 360 358 356 360 1 357 356 351 348 357 15 11 354 239 199 173 151 147 141
13 21 34 15 20 9 10 18 12 16 10 30 25 16 5 8 13 12 17 13 12 9 0 357 359 0 356 1 358 5 359 1 356 354 347 359 360 25 104 146 141 142 143
27 28 32 20 23 15 14 24 13 4 20 18 12 25 17 19 15 10 9 9 6 3 3 358 1 1 355 2 358 2 1 358 353 351 348 338 344 2 36 61 138 139 129
41 33 37 24 20 21 17 21 17 6 18 21 7 11 19 19 17 12 8 5 3 5 358 359 2 1 359 8 356 354 357 355 352 349 346 336 324 331 346 22 51 109 114
52 48 34 25 26 22 16 16 21 8 15 13 11 7 16 21 11 10 4 360 358 1 5 2 359 2 3 13 10 356 353 345 342 334 327 325 329 294 301 304 318 106 108
48 55 49 27 36 24 23 14 21 11 6 13 10 5 5 16 4 7 360 357 355 357 1 5 2 6 357 9 9 1 350 344 334 338 334 328 344 349 220 214 193 117 111
68 67 60 47 36 35 30 25 24 8 5 9 3 0 357 5 0 6 357 356 352 353 356 359 357 2 360 359 2 3 356 349 354 344 347 345 352 358 354 90 122 119 123
83 75 62 56 50 38 42 30 21 10 7 3 0 354 353 357 354 1 355 354 350 352 351 351 353 0 360 358 354 354 1 359 353 347 342 355 357 356 349 360 129 135 138